Previsão horária em Çelikhan

Hoje, 25 Julho, Domingo

Tempo Temperatura Precipitação Vento Pressão Humidade
00:00 +21°C° 0 mm 2 m/s 640 mmHg 45%
01:00 +21°C° 0 mm 2 m/s 640 mmHg 48%
02:00 +20°C° 0 mm 2 m/s 640 mmHg 51%
03:00 +20°C° 0 mm 2 m/s 639 mmHg 53%
04:00 +20°C° 0 mm 2 m/s 640 mmHg 55%
05:00 +19°C° 0 mm 2 m/s 640 mmHg 56%
06:00 +19°C° 0 mm 2 m/s 640 mmHg 58%
07:00 +21°C° 0 mm 2 m/s 641 mmHg 52%
08:00 +24°C° 0 mm 2 m/s 641 mmHg 46%
09:00 +26°C° 0 mm 2 m/s 642 mmHg 40%
10:00 +27°C° 0 mm 2 m/s 642 mmHg 34%
11:00 +29°C° 0 mm 3 m/s 643 mmHg 28%
12:00 +32°C° 0 mm 4 m/s 643 mmHg 21%
13:00 +32°C° 0 mm 4 m/s 643 mmHg 19%
14:00 +33°C° 0 mm 4 m/s 643 mmHg 17%
15:00 +34°C° 0 mm 4 m/s 643 mmHg 15%
16:00 +33°C° 0 mm 4 m/s 643 mmHg 15%
17:00 +33°C° 0 mm 3 m/s 643 mmHg 15%
18:00 +33°C° 0 mm 3 m/s 643 mmHg 15%
19:00 +30°C° 0 mm 3 m/s 643 mmHg 18%
20:00 +28°C° 0 mm 2 m/s 642 mmHg 21%
21:00 +26°C° 0 mm 2 m/s 642 mmHg 24%
22:00 +25°C° 0 mm 2 m/s 642 mmHg 26%
23:00 +25°C° 0 mm 2 m/s 642 mmHg 28%

Amanhã, 26 Julho, Segunda-feira

Tempo Temperatura Precipitação Vento Pressão Humidade
00:00 +24°C° 0 mm 2 m/s 642 mmHg 31%
01:00 +24°C° 0 mm 2 m/s 642 mmHg 33%
02:00 +23°C° 0 mm 1 m/s 642 mmHg 36%
03:00 +23°C° 0 mm 1 m/s 642 mmHg 38%
04:00 +23°C° 0 mm 1 m/s 642 mmHg 39%
05:00 +22°C° 0 mm 1 m/s 642 mmHg 39%
06:00 +22°C° 0 mm 1 m/s 642 mmHg 40%
07:00 +24°C° 0 mm 1 m/s 643 mmHg 34%
08:00 +27°C° 0 mm 1 m/s 643 mmHg 28%
09:00 +29°C° 0 mm 1 m/s 644 mmHg 22%
10:00 +30°C° 0 mm 2 m/s 644 mmHg 21%
11:00 +31°C° 0 mm 3 m/s 645 mmHg 19%
12:00 +34°C° 0 mm 4 m/s 645 mmHg 18%
13:00 +34°C° 0 mm 5 m/s 645 mmHg 17%
14:00 +35°C° 0 mm 5 m/s 645 mmHg 17%
15:00 +35°C° 0 mm 6 m/s 645 mmHg 16%
16:00 +35°C° 0 mm 6 m/s 644 mmHg 16%
17:00 +34°C° 0 mm 6 m/s 644 mmHg 16%
18:00 +34°C° 0 mm 6 m/s 644 mmHg 16%
19:00 +32°C° 0 mm 4 m/s 644 mmHg 20%
20:00 +28°C° 0 mm 3 m/s 643 mmHg 25%
21:00 +26°C° 0 mm 2 m/s 643 mmHg 29%
22:00 +26°C° 0 mm 2 m/s 643 mmHg 32%
23:00 +25°C° 0 mm 2 m/s 643 mmHg 35%

Depois de amanhã, 27 Julho, Terça-feira

Tempo Temperatura Precipitação Vento Pressão Humidade
00:00 +24°C° 0 mm 2 m/s 643 mmHg 38%
01:00 +23°C° 0 mm 2 m/s 643 mmHg 39%
02:00 +22°C° 0 mm 3 m/s 643 mmHg 40%
03:00 +21°C° 0 mm 3 m/s 642 mmHg 41%
04:00 +21°C° 0 mm 3 m/s 642 mmHg 43%
05:00 +21°C° 0 mm 3 m/s 642 mmHg 44%
06:00 +21°C° 0 mm 3 m/s 642 mmHg 45%
07:00 +22°C° 0 mm 3 m/s 643 mmHg 40%
08:00 +25°C° 0 mm 3 m/s 643 mmHg 35%
09:00 +27°C° 0 mm 4 m/s 644 mmHg 29%
10:00 +28°C° 0 mm 4 m/s 644 mmHg 28%
11:00 +29°C° 0 mm 5 m/s 644 mmHg 26%
12:00 +30°C° 0 mm 6 m/s 644 mmHg 25%
13:00 +30°C° 0 mm 6 m/s 644 mmHg 23%
14:00 +32°C° 0 mm 7 m/s 644 mmHg 22%
15:00 +33°C° 0 mm 7 m/s 643 mmHg 21%
16:00 +32°C° 0 mm 8 m/s 643 mmHg 23%
17:00 +31°C° 0 mm 9 m/s 643 mmHg 25%
18:00 +29°C° 0 mm 10 m/s 642 mmHg 27%
19:00 +27°C° 0 mm 8 m/s 642 mmHg 34%
20:00 +26°C° 0 mm 6 m/s 642 mmHg 40%
21:00 +23°C° 0 mm 5 m/s 642 mmHg 46%
22:00 +22°C° 0 mm 4 m/s 641 mmHg 49%
23:00 +21°C° 0 mm 4 m/s 641 mmHg 52%

28 Julho, Quarta-feira

Tempo Temperatura Precipitação Vento Pressão Humidade
00:00 +20°C° 0 mm 4 m/s 641 mmHg 55%
01:00 +19°C° 0 mm 4 m/s 641 mmHg 56%
02:00 +19°C° 0 mm 4 m/s 640 mmHg 58%
03:00 +18°C° 0 mm 4 m/s 640 mmHg 59%
04:00 +18°C° 0 mm 4 m/s 640 mmHg 60%
05:00 +17°C° 0 mm 4 m/s 640 mmHg 62%
06:00 +17°C° 0 mm 4 m/s 640 mmHg 63%
07:00 +19°C° 0 mm 4 m/s 640 mmHg 55%
08:00 +20°C° 0 mm 4 m/s 641 mmHg 46%
09:00 +22°C° 0 mm 5 m/s 641 mmHg 38%
10:00 +25°C° 0 mm 5 m/s 641 mmHg 33%
11:00 +27°C° 0 mm 5 m/s 642 mmHg 28%
12:00 +29°C° 0 mm 5 m/s 642 mmHg 23%
13:00 +30°C° 0 mm 6 m/s 642 mmHg 21%
14:00 +32°C° 0 mm 6 m/s 642 mmHg 19%
15:00 +33°C° 0 mm 6 m/s 642 mmHg 16%
16:00 +32°C° 0 mm 7 m/s 641 mmHg 17%
17:00 +32°C° 0 mm 8 m/s 641 mmHg 18%
18:00 +32°C° 0 mm 9 m/s 641 mmHg 19%
19:00 +28°C° 0 mm 7 m/s 641 mmHg 25%
20:00 +26°C° 0 mm 5 m/s 640 mmHg 30%
21:00 +23°C° 0 mm 4 m/s 640 mmHg 36%
22:00 +22°C° 0 mm 4 m/s 640 mmHg 38%
23:00 +21°C° 0 mm 4 m/s 640 mmHg 41%

29 Julho, Quinta-feira

Tempo Temperatura Precipitação Vento Pressão Humidade
00:00 +20°C° 0 mm 4 m/s 640 mmHg 43%
01:00 +20°C° 0 mm 4 m/s 639 mmHg 46%
02:00 +19°C° 0 mm 4 m/s 639 mmHg 50%
03:00 +18°C° 0 mm 4 m/s 639 mmHg 53%
04:00 +18°C° 0 mm 4 m/s 639 mmHg 55%
05:00 +17°C° 0 mm 4 m/s 639 mmHg 58%
06:00 +17°C° 0 mm 4 m/s 639 mmHg 61%
07:00 +19°C° 0 mm 4 m/s 640 mmHg 54%
08:00 +21°C° 0 mm 4 m/s 640 mmHg 47%
09:00 +24°C° 0 mm 3 m/s 641 mmHg 41%
10:00 +26°C° 0 mm 3 m/s 641 mmHg 37%
11:00 +28°C° 0 mm 3 m/s 641 mmHg 32%
12:00 +29°C° 0 mm 3 m/s 642 mmHg 28%
13:00 +30°C° 0 mm 3 m/s 642 mmHg 26%
14:00 +33°C° 0 mm 3 m/s 642 mmHg 23%
15:00 +34°C° 0 mm 3 m/s 642 mmHg 20%
16:00 +34°C° 0 mm 3 m/s 641 mmHg 20%
17:00 +33°C° 0 mm 4 m/s 641 mmHg 19%
18:00 +33°C° 0 mm 4 m/s 641 mmHg 18%
19:00 +30°C° 0 mm 4 m/s 641 mmHg 22%
20:00 +28°C° 0 mm 3 m/s 640 mmHg 26%
21:00 +26°C° 0 mm 3 m/s 640 mmHg 30%
22:00 +25°C° 0 mm 3 m/s 640 mmHg 32%
23:00 +24°C° 0 mm 3 m/s 639 mmHg 33%

30 Julho, Sexta-feira

Tempo Temperatura Precipitação Vento Pressão Humidade
00:00 +22°C° 0 mm 3 m/s 639 mmHg 35%
01:00 +21°C° 0 mm 3 m/s 639 mmHg 38%
02:00 +21°C° 0 mm 3 m/s 639 mmHg 41%
03:00 +20°C° 0 mm 3 m/s 638 mmHg 43%
04:00 +20°C° 0 mm 3 m/s 639 mmHg 46%
05:00 +19°C° 0 mm 3 m/s 639 mmHg 49%
06:00 +19°C° 0 mm 3 m/s 639 mmHg 52%
07:00 +21°C° 0 mm 3 m/s 639 mmHg 48%
08:00 +24°C° 0 mm 2 m/s 640 mmHg 43%
09:00 +26°C° 0 mm 2 m/s 640 mmHg 39%
10:00 +28°C° 0 mm 2 m/s 641 mmHg 34%
11:00 +29°C° 0 mm 2 m/s 641 mmHg 30%
12:00 +31°C° 0 mm 2 m/s 641 mmHg 26%
13:00 +32°C° 0 mm 2 m/s 641 mmHg 23%
14:00 +34°C° 0 mm 3 m/s 641 mmHg 21%
15:00 +35°C° 0 mm 3 m/s 641 mmHg 18%
16:00 +34°C° 0 mm 3 m/s 641 mmHg 18%
17:00 +34°C° 0 mm 3 m/s 640 mmHg 18%
18:00 +34°C° 0 mm 3 m/s 640 mmHg 18%
19:00 +31°C° 0 mm 3 m/s 640 mmHg 23%
20:00 +29°C° 0 mm 3 m/s 640 mmHg 28%
21:00 +27°C° 0 mm 3 m/s 640 mmHg 33%
22:00 +26°C° 0 mm 3 m/s 640 mmHg 38%
23:00 +25°C° 0 mm 3 m/s 639 mmHg 43%
Mostrar mais

Necessitamos do seu Consentimento

A Meteoprog e os seus Fornecedores de Serviços podem armazenar e aceder a dados pessoais como cookies, identificadores do dispositivo ou outras tecnologias semelhantes existentes no seu dispositivo e processar estes dados para personalizar conteúdos e anúncios, assim como funcionalidades nas redes sociais e análise de tráfego.

  • Armazenar e/ou aceder a informações no seu dispositivo

    Os cookies, identificadores do dispositivo ou outras informações podem ser armazenados ou acedidos no seu dispositivo, para os fins acima indicados.

  • Anúncios e conteúdos personalizados, medição de anúncios e conteúdos, dados sobre o público-alvo e desenvolvimento de produtos

    Os anúncios e os conteúdos podem ser personalizados com base num perfil. Podem ser adicionados dados adicionais para uma maior personalização dos anúncios e dos conteúdos. A eficácia dos anúncios e dos conteúdos pode ser medida. Podem ser obtidas informações sobre o público que visualizou os anúncios e os conteúdos. Estes dados podem ser usados para desenvolver ou melhorar sistemas, softwares ou a experiência do utilizador.

Ao clicar em "Eu concordo”, permitirá o uso de cookies, identificadores do dispositivo e web beacons mencionados ou outras tecnologias semelhantes. As configurações do navegador do seu dispositivo podem ser alteradas.

Para certos fins, podem ser invocados interesses legítimos ao invés de consentimento. Pode ler mais informação sobre este assunto na nossa Política de Privacidade e Cookies.